sat.trackr.live / text

‹ back to catalog

STARLINK-31715

NORAD 59384 · 2024-062L

PAYLOAD ACTIVE UNKNOWN

§ Identity

Operator
Country
US
Launch date
2024-04-02
Launch site
AFWTR
Launch vehicle
Mass (kg)
RCS (m²)

Purposes: comms

External: N2YO · Heavens-Above · Gunter

§ Orbital elements

Epoch: 2026-09-20T17:12:54.942048Z

Period
93.85 min
Inclination
53.1601°
Eccentricity
0.0001354
Mean motion
15.34369295 rev/d
Perigee alt
461.9 km
Apogee alt
463.7 km
Semi-major
6,840.9 km
B*
1.0815e-4
RAAN
66.7596°
Arg perigee
73.2425°
Mean anomaly
286.8727°
Rev number
13,957

§ Raw data

STARLINK-317151 59384U 24062L   26263.71730257  .00003276  00000+0  10815-3 0  99992 59384  53.1601  66.7596 0001354  73.2425 286.8727 15.34369295139574

JSON: /api/v1/satellites/59384 · /tle

For live sub-satellite position, see the globe view (requires WebGL).

§ Visibility from observer

Set your observer location to see the next 7 days of passes ≥ 10°. The values pass through the URL so the page stays shareable.

No JS? Fill the form by hand. The geolocation button needs JavaScript.